Current Version              Previous Version:    01  02  03  04  05  06  07  08  09  10  11  12  13  14  15  16  17  18  19  20  21  22  23  24  25  26  27  28  29  30  
   31  32  33  34  35  36  37  38  39  40  41  42  43  44  45  46  47  48  49  50  51  52  53  54  55  56  57  58  59  60  

[Printable]
303
ASUS44 KEWX 201810
RWRTX
SOUTH TEXAS REGIONAL WEATHER ROUNDUP
NATIONAL WEATHER SERVICE AUSTIN/SAN ANTONIO TX
1200 PM CST SAT DEC 20 2014

NOTE: "FAIR" INDICATED FEW OR NO CLOUDS BELOW 12,000 FEET WITH NO
SIGNIFICANT WEATHER AND/OR OBSTRUCTIONS TO VISIBILITY.

* - THESE STATIONS ARE NOT NWS OR FAA STATIONS...AND ARE NOT SUBJECT
    TO NWS AND FAA QUALITY CONTROL.

TXZ171-172-183>190-201900-
TEXAS HILL COUNTRY AND EDWARDS PLATEAU

CITY           SKY/WX    TMP DP  RH WIND       PRES   REMARKS
JUNCTION       CLOUDY    50  43  77 E6        30.20F WCI  48
6HR MIN TEMP:  42; 6HR MAX TEMP:  51;

*LLANO         CLOUDY    52  43  71 E3        30.27F
BURNET         CLOUDY    48  40  73 NW7       30.25F WCI  45
6HR MIN TEMP:  45; 6HR MAX TEMP:  48;

*HORSESHOE BAY CLOUDY    49  41  74 NE3       30.24F
6HR MIN TEMP:  46; 6HR MAX TEMP:  49;

*KERRVILLE     CLOUDY    51  44  75 N6        30.20F
6HR MIN TEMP:  44; 6HR MAX TEMP:  51;

*FREDERICKSBRG CLOUDY    49  40  73 E3        30.21F
6HR MIN TEMP:  45; 6HR MAX TEMP:  49;

*ROCKSPRINGS   CLOUDY    55  46  71 CALM      30.19F
*BOERNE STAGE  CLOUDY    50  41  71 NE6       30.22F WCI  48
*CASTROVILLE   CLOUDY    53  42  67 NE13      30.22F HAZE
HONDO          CLOUDY    52  43  71 NE10      30.22F
6HR MIN TEMP:  47; 6HR MAX TEMP:  52;

*UVALDE        PTSUNNY   48  41  78 SE8       30.21F WCI  44
6HR MIN TEMP:  38; 6HR MAX TEMP:  48;

DEL RIO        CLOUDY    53  46  77 SE8       30.19F
6HR MIN TEMP:  51; 6HR MAX TEMP:  53;

LAUGHLIN AFB   CLOUDY    53  47  80 S8        30.19F
6HR MIN TEMP:  50; 6HR MAX TEMP:  53;

CARRIZO SPRGS  CLOUDY    52  45  76 SE3       30.21F
$$

TXZ173-191>194-202-209-217>225-228-201900-
CENTRAL AND SOUTH CENTRAL TEXAS

CITY           SKY/WX    TMP DP  RH WIND       PRES   REMARKS
GEORGETOWN     CLOUDY    52  45  76 NW5       30.23F
AUSTIN/BERGSTM CLOUDY    53  46  77 N7        30.23F
6HR MIN TEMP:  49; 6HR MAX TEMP:  53; 6HR PCP: TRACE;

AUSTIN/MABRY   CLOUDY    52  45  77 NW3       30.24F
6HR MIN TEMP:  49; 6HR MAX TEMP:  52;

*AUSTIN/EXEC   CLOUDY    52  45  76 N8        30.24F
*LAGO VISTA    CLOUDY    50  44  80 CALM      30.23F
6HR MIN TEMP:  47; 6HR MAX TEMP:  50;

SAN MARCOS     CLOUDY    52  45  76 N8        30.23F
NEW BRAUNFELS  CLOUDY    53  45  74 NE8       30.21F
6HR MIN TEMP:  50; 6HR MAX TEMP:  53;

RANDOLPH AFB   CLOUDY    52  43  71 N10       30.21F
6HR MIN TEMP:  49; 6HR MAX TEMP:  53;

PT SAN ANTONIO PTSUNNY   55  44  67 N13       30.18F
6HR MIN TEMP:  48; 6HR MAX TEMP:  55;

SAN ANTONIO    CLOUDY    54  43  66 N12       30.22F
6HR MIN TEMP:  48; 6HR MAX TEMP:  55;

STINSON FIELD  CLOUDY    55  44  66 N13       30.19F
6HR MIN TEMP:  49; 6HR MAX TEMP:  55;

*PLEASANTON    CLOUDY    55  44  68 NE9       30.22F
6HR MIN TEMP:  49; 6HR MAX TEMP:  55;

*LA GRANGE     CLOUDY    55  50  84 N7        30.20F
6HR MIN TEMP:  50; 6HR MAX TEMP:  55;

*GIDDINGS      CLOUDY    52  47  82 N6        30.25F
6HR MIN TEMP:  48; 6HR MAX TEMP:  53;

*GONZALES      NOT AVBL
$$

TXZ163>164-176>182-195>201-210>213-226-227-235-201900-
SOUTHEAST TEXAS

CITY           SKY/WX    TMP DP  RH WIND       PRES   REMARKS
COLLEGE STN    CLOUDY    51  48  89 N9        30.22F
6HR MIN TEMP:  49; 6HR MAX TEMP:  52;

*BRYAN         CLOUDY    50  48  92 NE6       30.24F WCI  48
6HR MIN TEMP:  48; 6HR MAX TEMP:  50;

*CALDWELL      CLOUDY    50  48  93 NW7       30.26F WCI  47
*CROCKETT      CLOUDY    52  48  87 N7        30.26F
*BRENHAM       CLOUDY    53  50  89 N8        30.23S
6HR MIN TEMP:  50; 6HR MAX TEMP:  53;

HUNTSVILLE     CLOUDY    50  47  89 VRB3      30.22F
6HR MIN TEMP:  48; 6HR MAX TEMP:  50;

CONROE         CLOUDY    51  47  86 NE7       30.21F
6HR MIN TEMP:  48; 6HR MAX TEMP:  51;

HOUSTON BUSH   CLOUDY    54  49  83 N9        30.19F
6HR MIN TEMP:  50; 6HR MAX TEMP:  54;

HOUSTON HOBBY  CLOUDY    54  50  86 NE8       30.19F
6HR MIN TEMP:  51; 6HR MAX TEMP:  55;

*HOUSTON SW AP CLOUDY    46  43  91 N6        30.20F WCI  43
6HR MIN TEMP:  43; 6HR MAX TEMP:  46;

PEARLAND       CLOUDY    56  50  80 NE10      30.20F
6HR MIN TEMP:  52; 6HR MAX TEMP:  56;

HOUSTON HOOKS  CLOUDY    53  48  83 N8        30.20F
6HR MIN TEMP:  50; 6HR MAX TEMP:  53;

ELLINGTON FLD  CLOUDY    54  52  94 N8        30.20F
SUGAR LAND     CLOUDY    55  49  80 NE7       30.19F
6HR MIN TEMP:  51; 6HR MAX TEMP:  55;

*HOUSTON EXEC  CLOUDY    54  48  82 NE5       30.21F
*CLEVELAND MUN CLOUDY    51  49  95 CALM      30.22F FOG
6HR MIN TEMP:  49; 6HR MAX TEMP:  51;

*WHARTON       CLOUDY    53  50  89 NE7       30.20F
6HR MIN TEMP:  50; 6HR MAX TEMP:  53;

*COLUMBUS      CLOUDY    53  49  86 N8        30.20F
6HR MIN TEMP:  49; 6HR MAX TEMP:  53;

$$

TXZ214>216-236>238-201900-
THE UPPER TEXAS COAST

CITY           SKY/WX    TMP DP  RH WIND       PRES   REMARKS
*ORANGE        CLOUDY    51  49  92 N6        30.20F
6HR MIN TEMP:  49; 6HR MAX TEMP:  52;

PORT ARTHUR    CLOUDY    53  49  86 N10       30.18F
6HR MIN TEMP:  50; 6HR MAX TEMP:  53;

GALVESTON      CLOUDY    54  51  90 NE10      30.19S
6HR MIN TEMP:  51; 6HR MAX TEMP:  54; 6HR PCP: TRACE;

ANGLETON       CLOUDY    52  50  93 NE7       30.19F
6HR MIN TEMP:  50; 6HR MAX TEMP:  52;

*BAY CITY        N/A     54  53  95 NE8       30.18F
PALACIOS       CLOUDY    54  51  90 N12       30.19F
6HR MIN TEMP:  52; 6HR MAX TEMP:  54;

$$

TXZ229>234-239>247-201900-
TEXAS COASTAL BEND AND RIO GRANDE PLAINS

CITY           SKY/WX    TMP DP  RH WIND       PRES   REMARKS
VICTORIA       CLOUDY    56  49  77 N9        30.20F
6HR MIN TEMP:  51; 6HR MAX TEMP:  56;

*BEEVILLE      CLOUDY    53  49  86 NE8       30.21F
6HR MIN TEMP:  51; 6HR MAX TEMP:  53;

ROCKPORT       CLOUDY    55  49  80 N13       30.20F
6HR MIN TEMP:  51; 6HR MAX TEMP:  56;

*PORT ARANSAS  CLOUDY    54  50  87 N12       30.19F
6HR MIN TEMP:  51; 6HR MAX TEMP:  54;

*PORT LAVACA   CLOUDY    54  50  87 N14       30.20S
6HR MIN TEMP:  50; 6HR MAX TEMP:  54;

*INGLESIDE     CLOUDY    55  48  79 N12       30.20S
CORPUS CHRISTI CLOUDY    55  50  83 N12       30.20F
6HR MIN TEMP:  51; 6HR MAX TEMP:  56;

CORPUS NAS     CLOUDY    56  52  86 N10       30.19F
6HR MIN TEMP:  52; 6HR MAX TEMP:  56;

*ROBSTOWN      CLOUDY    55  51  87 N7        30.21F
ALICE          CLOUDY    54  48  80 N7        30.21F
6HR MIN TEMP:  52; 6HR MAX TEMP:  54;

KINGSVILLE NAS CLOUDY    54  51  90 N7        30.21F
6HR MIN TEMP:  52; 6HR MAX TEMP:  54;

COTULLA        CLOUDY    53  45  74 CALM      30.23F
6HR MIN TEMP:  51; 6HR MAX TEMP:  53;

LAREDO         NOT AVBL
$$

TXZ248>255-201900-
DEEP SOUTH TEXAS

CITY           SKY/WX    TMP DP  RH WIND       PRES   REMARKS
BROWNSVILLE    CLOUDY    58  54  86 N12       30.17F
6HR MIN TEMP:  58; 6HR MAX TEMP:  60;

PORT ISABEL    CLOUDY    57  54  89 NW14      30.18F FOG
6HR MIN TEMP:  57; 6HR MAX TEMP:  60;

*SOUTH PADRE   PTSUNNY   59  57  94 E14G20    30.17F
HARLINGEN      CLOUDY    57  54  89 N13       30.19F
6HR MIN TEMP:  56; 6HR MAX TEMP:  58;

*HEBBRONVILLE  CLOUDY    51  47  87 NE6       30.21F FOG
MCALLEN        CLOUDY    58  53  84 N8        30.20F
6HR MIN TEMP:  56; 6HR MAX TEMP:  59; 6HR PCP: TRACE;